Location: Borojevi?i
(45.0486°N, 16.2297°E)
Time: 05:37:06
(UTC+00:00)

Cosmos 1459 Rocket - Pass Details

Date: 08 August 2020
Orbit: 937 x 1000 km, 83.0° (Epoch: 19 September)

Event Time Altitude Azimuth Distance (km) Brightness Sun altitude
Exits shadow 20:58:06 46° 133° (SE) 1,292 4.2 -23.1°
Maximum altitude 20:59:27 55° 92° (E) 1,172 4.2 -23.2°
Drops below altitude 10° 21:05:37 10° 16° (NNE) 2,771 6.9 -23.8°
Sets 21:08:13 0° 13° (NNE) 3,729 7.8 -24.0°
